• en France
  • Liste des pays
  • À 7 jours
  • Température de l'eau
  • Carte satellitaire
  • Carte météo
  • Widgets météo
  • user-avatar
    Se connecter

    Météo par heure à Impfondo

    Ce jour, 14 Décembre, Jeudi

    Heure Température Précipitation Vent Pression Humidité
    00:00 +25°C° 0 mm 0 m/s 730 mmHg 68%
    01:00 +24°C° 0 mm 0 m/s 730 mmHg 69%
    02:00 +24°C° 0 mm 0 m/s 730 mmHg 70%
    03:00 +24°C° 0 mm 0 m/s 730 mmHg 71%
    04:00 +23°C° 0 mm 0 m/s 730 mmHg 72%
    05:00 +24°C° 0 mm 0 m/s 730 mmHg 70%
    06:00 +25°C° 0 mm 0 m/s 730 mmHg 68%
    07:00 +27°C° 0 mm 0 m/s 731 mmHg 63%
    08:00 +30°C° 0 mm 0 m/s 731 mmHg 53%
    09:00 +33°C° 0 mm 0 m/s 731 mmHg 44%
    10:00 +39°C° 0 mm 1 m/s 731 mmHg 34%
    11:00 +40°C° 0 mm 1 m/s 730 mmHg 31%
    12:00 +41°C° 0 mm 1 m/s 730 mmHg 27%
    13:00 +38°C° 0 mm 0 m/s 730 mmHg 28%
    14:00 +37°C° 0 mm 0 m/s 730 mmHg 30%
    15:00 +35°C° 0 mm 0 m/s 729 mmHg 31%
    16:00 +34°C° 0 mm 0 m/s 729 mmHg 33%
    17:00 +34°C° 0 mm 1 m/s 729 mmHg 39%
    18:00 +32°C° 0 mm 1 m/s 729 mmHg 46%
    19:00 +30°C° 0 mm 1 m/s 729 mmHg 52%
    20:00 +29°C° 0 mm 1 m/s 730 mmHg 59%
    21:00 +28°C° 0 mm 1 m/s 730 mmHg 66%
    22:00 +27°C° 0 mm 1 m/s 731 mmHg 73%
    23:00 +27°C° 0 mm 1 m/s 730 mmHg 76%

    Demain, 15 Décembre, Vendredi

    Heure Température Précipitation Vent Pression Humidité
    00:00 +27°C° 0 mm 1 m/s 730 mmHg 80%
    01:00 +26°C° 0 mm 1 m/s 730 mmHg 83%
    02:00 +26°C° 0 mm 1 m/s 730 mmHg 86%
    03:00 +25°C° 0 mm 1 m/s 730 mmHg 89%
    04:00 +25°C° 0 mm 1 m/s 730 mmHg 92%
    05:00 +25°C° 0 mm 1 m/s 730 mmHg 88%
    06:00 +26°C° 0 mm 1 m/s 731 mmHg 85%
    07:00 +27°C° 0 mm 1 m/s 731 mmHg 82%
    08:00 +29°C° 0 mm 1 m/s 731 mmHg 70%
    09:00 +32°C° 0 mm 1 m/s 731 mmHg 58%
    10:00 +35°C° 0 mm 1 m/s 731 mmHg 47%
    11:00 +37°C° 0 mm 1 m/s 731 mmHg 40%
    12:00 +40°C° 0 mm 1 m/s 730 mmHg 34%
    13:00 +41°C° 0 mm 1 m/s 729 mmHg 28%
    14:00 +40°C° 0 mm 1 m/s 728 mmHg 29%
    15:00 +39°C° 0 mm 1 m/s 728 mmHg 30%
    16:00 +37°C° 0 mm 1 m/s 727 mmHg 32%
    17:00 +35°C° 0 mm 1 m/s 728 mmHg 38%
    18:00 +33°C° 0 mm 1 m/s 728 mmHg 43%
    19:00 +28°C° 0 mm 0 m/s 728 mmHg 49%
    20:00 +28°C° 0 mm 0 m/s 728 mmHg 51%
    21:00 +29°C° 0 mm 1 m/s 729 mmHg 52%
    22:00 +29°C° 0 mm 1 m/s 729 mmHg 54%
    23:00 +28°C° 0 mm 1 m/s 729 mmHg 55%

    Après-demain, 16 Décembre, Samedi

    Heure Température Précipitation Vent Pression Humidité
    00:00 +26°C° 0 mm 0 m/s 729 mmHg 57%
    01:00 +25°C° 0 mm 0 m/s 729 mmHg 59%
    02:00 +25°C° 0 mm 0 m/s 729 mmHg 61%
    03:00 +25°C° 0 mm 0 m/s 728 mmHg 62%
    04:00 +24°C° 0 mm 0 m/s 728 mmHg 63%
    05:00 +25°C° 0 mm 0 m/s 729 mmHg 62%
    06:00 +27°C° 0 mm 1 m/s 729 mmHg 61%
    07:00 +28°C° 0 mm 1 m/s 730 mmHg 60%
    08:00 +31°C° 0 mm 1 m/s 730 mmHg 52%
    09:00 +34°C° 0 mm 1 m/s 730 mmHg 44%
    10:00 +37°C° 0 mm 1 m/s 731 mmHg 36%
    11:00 +40°C° 0 mm 1 m/s 730 mmHg 32%
    12:00 +42°C° 0 mm 1 m/s 729 mmHg 28%
    13:00 +40°C° 0 mm 0 m/s 728 mmHg 24%
    14:00 +38°C° 0 mm 0 m/s 728 mmHg 29%
    15:00 +36°C° 0 mm 0 m/s 727 mmHg 34%
    16:00 +36°C° 0 mm 1 m/s 726 mmHg 39%
    17:00 +34°C° 0 mm 1 m/s 727 mmHg 43%
    18:00 +33°C° 0 mm 1 m/s 727 mmHg 46%
    19:00 +31°C° 0 mm 1 m/s 728 mmHg 50%
    20:00 +30°C° 0 mm 1 m/s 728 mmHg 52%
    21:00 +30°C° 0 mm 1 m/s 729 mmHg 53%
    22:00 +29°C° 0 mm 1 m/s 729 mmHg 55%
    23:00 +29°C° 0 mm 1 m/s 729 mmHg 57%

    17 Décembre, Dimanche

    Heure Température Précipitation Vent Pression Humidité
    00:00 +28°C° 0 mm 1 m/s 728 mmHg 60%
    01:00 +28°C° 0 mm 1 m/s 728 mmHg 62%
    02:00 +27°C° 0 mm 1 m/s 728 mmHg 65%
    03:00 +27°C° 0 mm 1 m/s 728 mmHg 68%
    04:00 +26°C° 0 mm 1 m/s 728 mmHg 71%
    05:00 +27°C° 0 mm 2 m/s 729 mmHg 72%
    06:00 +27°C° 0 mm 2 m/s 730 mmHg 72%
    07:00 +28°C° 0 mm 2 m/s 730 mmHg 73%
    08:00 +30°C° 0 mm 2 m/s 731 mmHg 66%
    09:00 +33°C° 0 mm 3 m/s 731 mmHg 59%
    10:00 +35°C° 0 mm 3 m/s 731 mmHg 52%
    11:00 +35°C° 0,3 mm 2 m/s 730 mmHg 51%
    12:00 +36°C° 0,3 mm 2 m/s 729 mmHg 49%
    13:00 +36°C° 0,3 mm 2 m/s 728 mmHg 48%
    14:00 +36°C° 0,1 mm 2 m/s 728 mmHg 48%
    15:00 +36°C° 0,1 mm 2 m/s 727 mmHg 48%
    16:00 +35°C° 0,1 mm 2 m/s 727 mmHg 49%
    17:00 +34°C° 0 mm 2 m/s 727 mmHg 55%
    18:00 +31°C° 0 mm 2 m/s 728 mmHg 61%
    19:00 +29°C° 0 mm 2 m/s 728 mmHg 67%
    20:00 +29°C° 0 mm 1 m/s 729 mmHg 70%
    21:00 +28°C° 0 mm 1 m/s 730 mmHg 72%
    22:00 +28°C° 0 mm 1 m/s 730 mmHg 74%
    23:00 +27°C° 0 mm 1 m/s 730 mmHg 76%

    18 Décembre, Lundi

    Heure Température Précipitation Vent Pression Humidité
    00:00 +27°C° 0 mm 1 m/s 730 mmHg 78%
    01:00 +26°C° 0 mm 1 m/s 729 mmHg 81%
    02:00 +26°C° 0 mm 1 m/s 729 mmHg 81%
    03:00 +26°C° 0 mm 1 m/s 729 mmHg 81%
    04:00 +26°C° 0 mm 2 m/s 729 mmHg 82%
    05:00 +26°C° 0 mm 2 m/s 730 mmHg 81%
    06:00 +27°C° 0 mm 2 m/s 730 mmHg 80%
    07:00 +27°C° 0 mm 2 m/s 731 mmHg 79%
    08:00 +29°C° 0 mm 2 m/s 731 mmHg 68%
    09:00 +31°C° 0 mm 2 m/s 731 mmHg 58%
    10:00 +35°C° 0 mm 3 m/s 732 mmHg 48%
    11:00 +35°C° 0 mm 2 m/s 731 mmHg 45%
    12:00 +36°C° 0 mm 2 m/s 729 mmHg 43%
    13:00 +37°C° 0 mm 2 m/s 728 mmHg 40%
    14:00 +37°C° 0 mm 2 m/s 728 mmHg 42%
    15:00 +35°C° 0 mm 1 m/s 728 mmHg 43%
    16:00 +34°C° 0 mm 1 m/s 727 mmHg 45%
    17:00 +33°C° 0 mm 1 m/s 728 mmHg 51%
    18:00 +31°C° 0 mm 1 m/s 728 mmHg 56%
    19:00 +29°C° 0 mm 1 m/s 728 mmHg 62%
    20:00 +29°C° 0,1 mm 1 m/s 729 mmHg 65%
    21:00 +28°C° 0,1 mm 1 m/s 729 mmHg 68%
    22:00 +28°C° 0,1 mm 1 m/s 729 mmHg 71%
    23:00 +27°C° 0,5 mm 1 m/s 729 mmHg 76%

    19 Décembre, Mardi

    Heure Température Précipitation Vent Pression Humidité
    00:00 +26°C° 0,5 mm 1 m/s 729 mmHg 82%
    01:00 +25°C° 0,5 mm 1 m/s 729 mmHg 87%
    02:00 +25°C° 0,4 mm 1 m/s 729 mmHg 89%
    03:00 +25°C° 0,4 mm 1 m/s 729 mmHg 91%
    04:00 +25°C° 0,4 mm 1 m/s 729 mmHg 93%
    05:00 +25°C° 0 mm 1 m/s 730 mmHg 92%
    06:00 +25°C° 0 mm 1 m/s 730 mmHg 90%
    07:00 +26°C° 0 mm 1 m/s 731 mmHg 89%
    08:00 +28°C° 0 mm 1 m/s 731 mmHg 76%
    09:00 +31°C° 0 mm 2 m/s 731 mmHg 62%
    10:00 +34°C° 0 mm 2 m/s 731 mmHg 49%
    11:00 +36°C° 0 mm 2 m/s 730 mmHg 45%
    12:00 +37°C° 0 mm 2 m/s 729 mmHg 41%
    13:00 +38°C° 0 mm 2 m/s 728 mmHg 37%
    14:00 +37°C° 0 mm 2 m/s 728 mmHg 39%
    15:00 +35°C° 0 mm 1 m/s 728 mmHg 41%
    16:00 +35°C° 0 mm 1 m/s 727 mmHg 43%
    17:00 +33°C° 0 mm 1 m/s 728 mmHg 49%
    18:00 +31°C° 0 mm 1 m/s 728 mmHg 54%
    19:00 +30°C° 0 mm 1 m/s 729 mmHg 60%
    20:00 +29°C° 0 mm 1 m/s 729 mmHg 62%
    21:00 +29°C° 0 mm 1 m/s 729 mmHg 65%
    22:00 +28°C° 0 mm 1 m/s 729 mmHg 67%
    23:00 +28°C° 0,1 mm 1 m/s 729 mmHg 70%
    Voir plus